CXA1012 ZBAD-ZSPD

Flight info

Callsign CXA1012
Flight time N/A
Altitude 39100
Route ELKUR4K ELKUR W40 YQG/K0900S1220 W142 DALIM/K0902S1190 A593 DPX A470 DALNU W166 ZJ W167 SASAN SAS92A
Aircraft A35K/H-SDE2E3GHIJ3J4J5LM1ORWXY/LB1D1

Departure

Time 2026-04-14 18:34
Airport Beijing Daxing International Airport (ZBAD)

Arrival

Time N/A
Airport Shanghai Pudong International Airport (ZSPD)
Time Latitude Longitude Altitude Speed Heading
2026-04-14 17:30 39.50225 116.40500 114 ft 0 kts 263°
2026-04-14 18:21 39.50225 116.40505 114 ft 2 kts 264°
2026-04-14 18:22 39.50227 116.40529 111 ft 3 kts 272°
2026-04-14 18:22 39.50225 116.40554 111 ft 3 kts 285°
2026-04-14 18:22 39.50219 116.40576 110 ft 3 kts 301°
2026-04-14 18:22 39.50209 116.40594 110 ft 3 kts 322°
2026-04-14 18:23 39.50195 116.40606 110 ft 3 kts 343°
2026-04-14 18:23 39.50183 116.40610 111 ft 0 kts 353°
2026-04-14 18:23 39.50182 116.40611 111 ft 0 kts 353°
2026-04-14 18:30 39.50183 116.40611 111 ft 0 kts 353°
2026-04-14 18:30 39.50277 116.40595 112 ft 20 kts 354°
2026-04-14 18:31 39.50408 116.40535 111 ft 21 kts 323°
2026-04-14 18:31 39.50531 116.40417 113 ft 23 kts 323°
2026-04-14 18:31 39.50645 116.40274 111 ft 21 kts 285°
2026-04-14 18:31 39.50637 116.40147 112 ft 11 kts 261°
2026-04-14 18:32 39.50642 116.40057 113 ft 7 kts 314°
2026-04-14 18:32 39.50704 116.40012 112 ft 17 kts 349°
2026-04-14 18:32 39.50836 116.39991 112 ft 21 kts 352°
2026-04-14 18:32 39.50985 116.39966 112 ft 22 kts 353°
2026-04-14 18:33 39.51146 116.39943 111 ft 24 kts 353°
2026-04-14 18:33 39.51314 116.39909 110 ft 24 kts 334°
2026-04-14 18:33 39.51351 116.39765 111 ft 17 kts 266°
2026-04-14 18:34 39.50477 116.39820 113 ft 123 kts 173°
2026-04-14 18:34 39.49423 116.39990 205 ft 173 kts 172°
2026-04-14 18:34 39.48277 116.40122 1048 ft 165 kts 177°
2026-04-14 18:35 39.47098 116.40127 1673 ft 173 kts 182°
2026-04-14 18:35 39.45835 116.40048 1964 ft 194 kts 182°
2026-04-14 18:35 39.44402 116.40056 2260 ft 218 kts 178°
2026-04-14 18:35 39.42809 116.40186 2620 ft 239 kts 176°
2026-04-14 18:36 39.41113 116.40401 3225 ft 248 kts 176°
2026-04-14 18:36 39.39381 116.40652 3942 ft 252 kts 176°
2026-04-14 18:36 39.37627 116.40950 4628 ft 258 kts 173°
2026-04-14 18:36 39.35916 116.41816 5270 ft 271 kts 149°
2026-04-14 18:37 39.34655 116.43650 5964 ft 281 kts 119°
2026-04-14 18:37 39.34201 116.46087 6578 ft 289 kts 89°
2026-04-14 18:37 39.34490 116.48641 7355 ft 287 kts 79°
2026-04-14 18:37 39.34836 116.51189 8092 ft 288 kts 81°
2026-04-14 18:38 39.35155 116.53761 8807 ft 291 kts 81°
2026-04-14 18:38 39.35425 116.56366 9530 ft 293 kts 86°
2026-04-14 18:38 39.35395 116.59011 10220 ft 297 kts 93°
2026-04-14 18:38 39.35240 116.61735 10571 ft 312 kts 94°
2026-04-14 18:39 39.35064 116.64608 10867 ft 328 kts 94°
2026-04-14 18:39 39.34883 116.67583 11170 ft 343 kts 94°
2026-04-14 18:39 39.34696 116.70714 11454 ft 357 kts 94°
2026-04-14 18:39 39.34503 116.73965 11765 ft 368 kts 94°
2026-04-14 18:40 39.34277 116.77294 12242 ft 374 kts 97°
2026-04-14 18:40 39.33612 116.80545 12764 ft 378 kts 114°
2026-04-14 18:40 39.32200 116.83398 13333 ft 379 kts 133°
2026-04-14 18:40 39.30139 116.85511 13900 ft 379 kts 153°
2026-04-14 18:41 39.27707 116.86861 14354 ft 382 kts 162°
2026-04-14 18:41 39.25243 116.88025 14761 ft 387 kts 162°
2026-04-14 18:41 39.22706 116.89243 15231 ft 391 kts 161°
2026-04-14 18:41 39.20150 116.90496 15722 ft 394 kts 161°
2026-04-14 18:42 39.17581 116.91771 16184 ft 398 kts 161°
2026-04-14 18:42 39.15021 116.93050 16642 ft 401 kts 161°
2026-04-14 18:42 39.12407 116.94359 17123 ft 405 kts 161°
2026-04-14 18:42 39.09767 116.95688 17591 ft 409 kts 162°
2026-04-14 18:43 39.07102 116.97026 18049 ft 412 kts 162°
2026-04-14 18:43 39.04431 116.98368 18533 ft 410 kts 161°
2026-04-14 18:43 39.01787 116.99699 19148 ft 409 kts 161°
2026-04-14 18:43 38.99125 117.01034 19540 ft 412 kts 161°
2026-04-14 18:44 38.96441 117.02379 19941 ft 416 kts 161°
2026-04-14 18:44 38.93731 117.03738 20349 ft 421 kts 163°
2026-04-14 18:44 38.90966 117.05106 20511 ft 430 kts 163°
2026-04-14 18:44 38.88088 117.06143 20944 ft 427 kts 176°
2026-04-14 18:45 38.85146 117.06171 21380 ft 420 kts 193°
2026-04-14 18:45 38.82409 117.05111 21772 ft 414 kts 210°